| time (UTC) | temp C | wind direction | speed KPH | gust KPH | rain 1hr cm | rain 24hr cm | rain mn cm | humidity % | barometer mb |
| 20260505225752 | 12 | 303 | 4.8 | 4.8 | 0.00 | 0.00 | 0.00 | 39 | 1038.8 |
| 20260505225249 | 12 | 303 | 4.8 | 4.8 | 0.00 | 0.00 | 0.00 | 39 | 1038.8 |
| 20260505224743 | 12 | 303 | 4.8 | 4.8 | 0.00 | 0.00 | 0.00 | 39 | 1038.8 |
| 20260505224242 | 12 | 325 | 3.2 | 4.8 | 0.00 | 0.00 | 0.00 | 38 | 1038.9 |
| 20260505223739 | 12 | 295 | 6.4 | 8.0 | 0.00 | 0.00 | 0.00 | 36 | 1038.8 |
| 20260505223235 | 13 | 283 | 3.2 | 4.8 | 0.00 | 0.00 | 0.00 | 36 | 1038.7 |
| 20260505222731 | 13 | 311 | 8.0 | 14.5 | 0.00 | 0.00 | 0.00 | 35 | 1039.0 |
| 20260505222227 | 13 | 82 | 4.8 | 14.5 | 0.00 | 0.00 | 0.00 | 35 | 1038.6 |
| 20260505221725 | 13 | 305 | 4.8 | 9.7 | 0.00 | 0.00 | 0.00 | 37 | 1038.9 |
| 20260505221221 | 13 | 281 | 3.2 | 9.7 | 0.00 | 0.00 | 0.00 | 37 | 1038.7 |
| 20260505220718 | 13 | 300 | 4.8 | 9.7 | 0.00 | 0.00 | 0.00 | 37 | 1038.8 |
| 20260505220216 | 13 | 335 | 1.6 | 4.8 | 0.00 | 0.00 | 0.00 | 38 | 1038.4 |
| 20260505215714 | 13 | 236 | 6.4 | 9.7 | 0.00 | 0.00 | 0.00 | 36 | 1038.4 |
| 20260505215211 | 13 | 10 | 3.2 | 8.0 | 0.00 | 0.00 | 0.00 | 38 | 1038.7 |
| 20260505214709 | 13 | 308 | 6.4 | 16.1 | 0.00 | 0.00 | 0.00 | 36 | 1038.7 |
| 20260505214206 | 13 | 266 | 4.8 | 14.5 | 0.00 | 0.00 | 0.00 | 36 | 1038.5 |
| 20260505213703 | 13 | 205 | 4.8 | 4.8 | 0.00 | 0.00 | 0.00 | 38 | 1038.4 |
| 20260505213201 | 13 | 324 | 3.2 | 11.3 | 0.00 | 0.00 | 0.00 | 40 | 1038.6 |
| 20260505212656 | 13 | 319 | 1.6 | 9.7 | 0.00 | 0.00 | 0.00 | 40 | 1038.7 |
| 20260505212154 | 13 | 310 | 6.4 | 11.3 | 0.00 | 0.00 | 0.00 | 37 | 1038.5 |
| 20260505211651 | 13 | 280 | 4.8 | 11.3 | 0.00 | 0.00 | 0.00 | 42 | 1038.4 |
| 20260505211148 | 13 | 319 | 1.6 | 9.7 | 0.00 | 0.00 | 0.00 | 38 | 1038.6 |
| 20260505210644 | 13 | 211 | 1.6 | 8.0 | 0.00 | 0.00 | 0.00 | 37 | 1038.5 |
| 20260505210141 | 13 | 243 | 3.2 | 8.0 | 0.00 | 0.00 | 0.00 | 41 | 1038.7 |
| 20260505205638 | 13 | 184 | 8.0 | 11.3 | 0.00 | 0.00 | 0.00 | 39 | 1038.6 |
| 20260505205137 | 13 | 277 | 1.6 | 8.0 | 0.00 | 0.00 | 0.00 | 36 | 1038.6 |
| 20260505204633 | 14 | 334 | 1.6 | 12.9 | 0.00 | 0.00 | 0.00 | 35 | 1038.7 |
| 20260505204131 | 14 | 289 | 11.3 | 17.7 | 0.00 | 0.00 | 0.00 | 35 | 1038.8 |
| 20260505203628 | 13 | 21 | 1.6 | 8.0 | 0.00 | 0.00 | 0.00 | 37 | 1038.7 |
| 20260505203125 | 13 | 184 | 4.8 | 8.0 | 0.00 | 0.00 | 0.00 | 38 | 1038.7 |
| 20260505202620 | 13 | 277 | 4.8 | 9.7 | 0.00 | 0.00 | 0.00 | 38 | 1038.8 |
| 20260505202116 | 13 | 327 | 4.8 | 11.3 | 0.00 | 0.00 | 0.00 | 36 | 1038.7 |
| 20260505201613 | 13 | 301 | 4.8 | 8.0 | 0.00 | 0.00 | 0.00 | 36 | 1038.8 |
| 20260505201111 | 13 | 346 | 1.6 | 9.7 | 0.00 | 0.00 | 0.00 | 36 | 1038.9 |
| 20260505200609 | 13 | 297 | 3.2 | 8.0 | 0.00 | 0.00 | 0.00 | 38 | 1038.9 |
| 20260505200106 | 13 | 8 | 1.6 | 11.3 | 0.00 | 0.00 | 0.00 | 40 | 1039.1 |
| 20260505195602 | 13 | 185 | 3.2 | 4.8 | 0.00 | 0.00 | 0.00 | 42 | 1039.1 |
| 20260505195059 | 12 | 278 | 4.8 | 8.0 | 0.00 | 0.00 | 0.00 | 38 | 1039.4 |
| 20260505194556 | 13 | 309 | 1.6 | 9.7 | 0.00 | 0.00 | 0.00 | 36 | 1039.2 |
| 20260505194052 | 13 | 353 | 3.2 | 11.3 | 0.00 | 0.00 | 0.00 | 40 | 1039.3 |
| 20260505193549 | 13 | 299 | 6.4 | 12.9 | 0.00 | 0.00 | 0.00 | 36 | 1039.2 |
| 20260505193047 | 13 | 291 | 1.6 | 12.9 | 0.00 | 0.00 | 0.00 | 42 | 1039.1 |
| 20260505192545 | 13 | 332 | 3.2 | 8.0 | 0.00 | 0.00 | 0.00 | 36 | 1039.3 |
| 20260505192042 | 14 | 298 | 11.3 | 16.1 | 0.00 | 0.00 | 0.00 | 35 | 1039.2 |
| 20260505191540 | 15 | 43 | 3.2 | 17.7 | 0.00 | 0.00 | 0.00 | 40 | 1039.3 |
| 20260505191038 | 13 | 326 | 6.4 | 11.3 | 0.00 | 0.00 | 0.00 | 38 | 1039.5 |
| 20260505190532 | 14 | 338 | 3.2 | 11.3 | 0.00 | 0.00 | 0.00 | 36 | 1039.4 |
| 20260505190028 | 14 | 228 | 8.0 | 11.3 | 0.00 | 0.00 | 0.00 | 39 | 1039.5 |
| 20260505185525 | 13 | 305 | 3.2 | 4.8 | 0.00 | 0.00 | 0.00 | 36 | 1039.1 |
| 20260505185021 | 13 | 356 | 1.6 | 4.8 | 0.00 | 0.00 | 0.00 | 38 | 1039.1 |
| 20260505184519 | 13 | 354 | 1.6 | 8.0 | 0.00 | 0.00 | 0.00 | 38 | 1039.3 |
| 20260505184015 | 14 | 332 | 3.2 | 14.5 | 0.00 | 0.00 | 0.00 | 37 | 1039.3 |
| 20260505183512 | 13 | 288 | 3.2 | 8.0 | 0.00 | 0.00 | 0.00 | 41 | 1039.2 |
| 20260505183009 | 12 | 301 | 3.2 | 8.0 | 0.00 | 0.00 | 0.00 | 40 | 1039.0 |
| 20260505182506 | 13 | 284 | 4.8 | 12.9 | 0.00 | 0.00 | 0.00 | 39 | 1039.0 |
| 20260505182002 | 12 | 241 | 6.4 | 16.1 | 0.00 | 0.00 | 0.00 | 35 | 1039.2 |
| 20260505181459 | 13 | 288 | 4.8 | 8.0 | 0.00 | 0.00 | 0.00 | 39 | 1039.0 |
| 20260505180956 | 13 | 196 | 3.2 | 16.1 | 0.00 | 0.00 | 0.00 | 47 | 1039.0 |
| 20260505180452 | 13 | 185 | 4.8 | 12.9 | 0.00 | 0.00 | 0.00 | 46 | 1038.7 |
| 20260505175949 | 13 | 321 | 1.6 | 9.7 | 0.00 | 0.00 | 0.00 | 37 | 1038.7 |
| 20260505175445 | 12 | 330 | 4.8 | 8.0 | 0.00 | 0.00 | 0.00 | 37 | 1038.9 |
| 20260505174942 | 13 | 278 | 4.8 | 12.9 | 0.00 | 0.00 | 0.00 | 37 | 1038.8 |
| 20260505174439 | 13 | 6 | 3.2 | 4.8 | 0.00 | 0.00 | 0.00 | 37 | 1038.7 |
| 20260505173935 | 13 | 245 | 4.8 | 8.0 | 0.00 | 0.00 | 0.00 | 39 | 1038.9 |
| 20260505173432 | 12 | 321 | 4.8 | 9.7 | 0.00 | 0.00 | 0.00 | 41 | 1039.0 |
| 20260505172929 | 12 | 324 | 4.8 | 9.7 | 0.00 | 0.00 | 0.00 | 39 | 1039.1 |
| 20260505172428 | 12 | 225 | 1.6 | 11.3 | 0.00 | 0.00 | 0.00 | 45 | 1039.1 |
| 20260505171926 | 12 | 254 | 6.4 | 14.5 | 0.00 | 0.00 | 0.00 | 41 | 1038.9 |
| 20260505171424 | 12 | 344 | 4.8 | 9.7 | 0.00 | 0.00 | 0.00 | 41 | 1039.2 |
| 20260505170920 | 12 | 303 | 1.6 | 9.7 | 0.00 | 0.00 | 0.00 | 41 | 1039.3 |
| 20260505170417 | 12 | 301 | 6.4 | 11.3 | 0.00 | 0.00 | 0.00 | 40 | 1039.3 |
| 20260505165912 | 12 | 292 | 6.4 | 12.9 | 0.00 | 0.00 | 0.00 | 40 | 1039.1 |
| 20260505165409 | 12 | 307 | 3.2 | 9.7 | 0.00 | 0.00 | 0.00 | 41 | 1039.2 |
| 20260505164904 | 12 | 281 | 4.8 | 11.3 | 0.00 | 0.00 | 0.00 | 40 | 1039.3 |
| 20260505164401 | 12 | 282 | 1.6 | 11.3 | 0.00 | 0.00 | 0.00 | 39 | 1039.2 |
| 20260505163859 | 12 | 279 | 4.8 | 8.0 | 0.00 | 0.00 | 0.00 | 42 | 1039.0 |
| 20260505163358 | 11 | 285 | 3.2 | 11.3 | 0.00 | 0.00 | 0.00 | 41 | 1039.0 |
| 20260505162856 | 11 | 20 | 6.4 | 12.9 | 0.00 | 0.00 | 0.00 | 39 | 1039.1 |
| 20260505162351 | 12 | 331 | 4.8 | 9.7 | 0.00 | 0.00 | 0.00 | 42 | 1038.9 |
| 20260505161849 | 12 | 324 | 6.4 | 12.9 | 0.00 | 0.00 | 0.00 | 37 | 1039.0 |
| 20260505161345 | 12 | 265 | 8.0 | 17.7 | 0.00 | 0.00 | 0.00 | 38 | 1038.9 |
| 20260505160843 | 12 | 298 | 6.4 | 9.7 | 0.00 | 0.00 | 0.00 | 39 | 1039.2 |
| 20260505160341 | 11 | 11 | 3.2 | 8.0 | 0.00 | 0.00 | 0.00 | 38 | 1038.8 |
| 20260505153320 | 11 | 112 | 4.8 | 9.7 | 0.00 | 0.00 | 0.00 | 37 | 1038.9 |
| 20260505152816 | 11 | 98 | 4.8 | 11.3 | 0.00 | 0.00 | 0.00 | 36 | 1038.8 |
| 20260505152313 | 11 | 137 | 3.2 | 11.3 | 0.00 | 0.00 | 0.00 | 36 | 1038.8 |
| 20260505151808 | 11 | 291 | 8.0 | 11.3 | 0.00 | 0.00 | 0.00 | 37 | 1038.8 |
| 20260505151305 | 11 | 308 | 4.8 | 8.0 | 0.00 | 0.00 | 0.00 | 35 | 1038.7 |
| 20260505150802 | 11 | 216 | 3.2 | 16.1 | 0.00 | 0.00 | 0.00 | 34 | 1038.8 |
| 20260505150259 | 11 | 47 | 3.2 | 8.0 | 0.00 | 0.00 | 0.00 | 35 | 1038.6 |
| 20260505140223 | 8 | 335 | 3.2 | 4.8 | 0.00 | 0.00 | 0.00 | 48 | 1039.2 |
| 20260505130147 | 8 | 330 | 3.2 | 11.3 | 0.00 | 0.00 | 0.00 | 57 | 1039.2 |
| 20260505124637 | 6 | 235 | 4.8 | 8.0 | 0.00 | 0.00 | 0.00 | 64 | 1039.2 |
| 20260505124134 | 6 | 128 | 3.2 | 3.2 | 0.00 | 0.00 | 0.00 | 67 | 1039.4 |
| 20260505123630 | 6 | 7 | 1.6 | 4.8 | 0.00 | 0.00 | 0.00 | 68 | 1039.3 |
| 20260505123126 | 6 | 26 | 0.0 | 4.8 | 0.00 | 0.00 | 0.00 | 72 | 1039.1 |
| 20260505122623 | 5 | 355 | 1.6 | 1.6 | 0.00 | 0.00 | 0.00 | 73 | 1039.2 |
| 20260505122121 | 5 | 70 | 1.6 | 3.2 | 0.00 | 0.00 | 0.00 | 79 | 1039.3 |
| 20260505121617 | 5 | 90 | 1.6 | 3.2 | 0.00 | 0.00 | 0.00 | 79 | 1039.1 |
| 20260505121114 | 5 | 55 | 1.6 | 3.2 | 0.00 | 0.00 | 0.00 | 80 | 1039.0 |
| 20260505120610 | 5 | 53 | 1.6 | 3.2 | 0.00 | 0.00 | 0.00 | 79 | 1039.0 |
| 20260505120106 | 5 | 58 | 1.6 | 3.2 | 0.00 | 0.00 | 0.00 | 77 | 1038.9 |
| 20260505115600 | 3 | 68 | 3.2 | 3.2 | 0.00 | 0.00 | 0.00 | 78 | 1039.0 |
| 20260505115058 | 3 | 54 | 1.6 | 3.2 | 0.00 | 0.00 | 0.00 | 82 | 1038.8 |
| 20260505114555 | 3 | 73 | 3.2 | 3.2 | 0.00 | 0.00 | 0.00 | 81 | 1038.7 |
| 20260505114051 | 3 | 52 | 1.6 | 1.6 | 0.00 | 0.00 | 0.00 | 83 | 1038.4 |
| 20260505113548 | 3 | 25 | 0.0 | 1.6 | 0.00 | 0.00 | 0.00 | 79 | 1038.1 |
| 20260505113044 | 3 | 24 | 0.0 | 1.6 | 0.00 | 0.00 | 0.00 | 79 | 1037.7 |
| 20260505112540 | 3 | 24 | 0.0 | 0.0 | 0.00 | 0.00 | 0.00 | 75 | 1037.6 |
| 20260505112038 | 3 | 24 | 0.0 | 0.0 | 0.00 | 0.00 | 0.00 | 75 | 1037.2 |
| 20260505111532 | 3 | 24 | 0.0 | 0.0 | 0.00 | 0.00 | 0.00 | 75 | 1037.2 |
| 20260505111029 | 3 | 24 | 0.0 | 0.0 | 0.00 | 0.00 | 0.00 | 73 | 1036.9 |
| 20260505110525 | 3 | 24 | 0.0 | 0.0 | 0.00 | 0.00 | 0.00 | 72 | 1036.9 |
| 20260505101958 | 4 | 6 | 0.0 | 0.0 | 0.00 | 0.00 | 0.00 | 67 | 1037.3 |
| 20260505101455 | 5 | 6 | 0.0 | 0.0 | 0.00 | 0.00 | 0.00 | 68 | 1037.4 |
| 20260505100952 | 5 | 6 | 0.0 | 0.0 | 0.00 | 0.00 | 0.00 | 67 | 1037.4 |
| 20260505100449 | 5 | 6 | 0.0 | 0.0 | 0.00 | 0.00 | 0.00 | 67 | 1036.9 |
| 20260505095945 | 5 | 6 | 0.0 | 0.0 | 0.00 | 0.00 | 0.00 | 67 | 1037.2 |
| 20260505095442 | 6 | 6 | 0.0 | 0.0 | 0.00 | 0.00 | 0.00 | 62 | 1037.1 |
| 20260505094938 | 6 | 6 | 0.0 | 0.0 | 0.00 | 0.00 | 0.00 | 60 | 1037.1 |
| 20260505094435 | 6 | 5 | 0.0 | 1.6 | 0.00 | 0.00 | 0.00 | 59 | 1037.1 |
| 20260505093931 | 6 | 6 | 0.0 | 0.0 | 0.00 | 0.00 | 0.00 | 59 | 1036.8 |
| 20260505093428 | 6 | 11 | 0.0 | 1.6 | 0.00 | 0.00 | 0.00 | 58 | 1036.8 |
| 20260505092925 | 6 | 6 | 0.0 | 1.6 | 0.00 | 0.00 | 0.00 | 58 | 1036.8 |
| 20260505092423 | 7 | 13 | 0.0 | 0.0 | 0.00 | 0.00 | 0.00 | 57 | 1036.5 |
| 20260505091920 | 7 | 8 | 0.0 | 3.2 | 0.00 | 0.00 | 0.00 | 56 | 1036.8 |
| 20260505091418 | 7 | 354 | 1.6 | 1.6 | 0.00 | 0.00 | 0.00 | 55 | 1036.8 |
| 20260505090916 | 7 | 18 | 1.6 | 1.6 | 0.00 | 0.00 | 0.00 | 55 | 1036.7 |
| 20260505090414 | 7 | 11 | 0.0 | 0.0 | 0.00 | 0.00 | 0.00 | 54 | 1036.7 |
| 20260505085911 | 7 | 10 | 0.0 | 1.6 | 0.00 | 0.00 | 0.00 | 53 | 1036.7 |
| 20260505085409 | 7 | 354 | 0.0 | 3.2 | 0.00 | 0.00 | 0.00 | 51 | 1037.0 |
| 20260505084907 | 7 | 352 | 1.6 | 8.0 | 0.00 | 0.00 | 0.00 | 51 | 1037.1 |
| 20260505084405 | 7 | 335 | 1.6 | 4.8 | 0.00 | 0.00 | 0.00 | 52 | 1036.9 |
| 20260505083902 | 7 | 354 | 3.2 | 4.8 | 0.00 | 0.00 | 0.00 | 52 | 1036.7 |
| 20260505083400 | 7 | 337 | 1.6 | 3.2 | 0.00 | 0.00 | 0.00 | 53 | 1036.2 |
| 20260505082855 | 7 | 357 | 1.6 | 1.6 | 0.00 | 0.00 | 0.00 | 56 | 1035.9 |
| 20260505082351 | 7 | 354 | 3.2 | 3.2 | 0.00 | 0.00 | 0.00 | 55 | 1035.9 |
| 20260505081849 | 7 | 22 | 0.0 | 1.6 | 0.00 | 0.00 | 0.00 | 54 | 1035.6 |
| 20260505081345 | 7 | 20 | 0.0 | 1.6 | 0.00 | 0.00 | 0.00 | 53 | 1035.5 |
| 20260505080842 | 8 | 14 | 1.6 | 3.2 | 0.00 | 0.00 | 0.00 | 52 | 1035.6 |
| 20260505080338 | 8 | 296 | 1.6 | 3.2 | 0.00 | 0.00 | 0.00 | 52 | 1035.4 |
| 20260505075833 | 8 | 35 | 1.6 | 3.2 | 0.00 | 0.00 | 0.00 | 52 | 1035.4 |
| 20260505075331 | 8 | 14 | 3.2 | 3.2 | 0.00 | 0.00 | 0.00 | 52 | 1035.4 |
| 20260505074828 | 8 | 72 | 1.6 | 4.8 | 0.00 | 0.00 | 0.00 | 52 | 1035.1 |
| 20260505074325 | 8 | 20 | 0.0 | 1.6 | 0.00 | 0.00 | 0.00 | 53 | 1035.3 |
| 20260505073822 | 8 | 53 | 3.2 | 3.2 | 0.00 | 0.00 | 0.00 | 52 | 1035.1 |
| 20260505073320 | 8 | 37 | 3.2 | 8.0 | 0.00 | 0.00 | 0.00 | 52 | 1034.8 |
| 20260505072817 | 8 | 9 | 4.8 | 8.0 | 0.00 | 0.00 | 0.00 | 52 | 1034.6 |
| 20260505072313 | 8 | 45 | 1.6 | 4.8 | 0.00 | 0.00 | 0.00 | 52 | 1034.4 |
| 20260505071809 | 8 | 26 | 1.6 | 4.8 | 0.00 | 0.00 | 0.00 | 53 | 1034.3 |
| 20260505071306 | 8 | 30 | 1.6 | 4.8 | 0.00 | 0.00 | 0.00 | 54 | 1034.2 |
| 20260505070804 | 8 | 23 | 1.6 | 3.2 | 0.00 | 0.00 | 0.00 | 55 | 1034.5 |
| 20260505070300 | 8 | 16 | 1.6 | 3.2 | 0.00 | 0.00 | 0.00 | 54 | 1034.3 |
| 20260505065755 | 9 | 18 | 1.6 | 3.2 | 0.00 | 0.00 | 0.00 | 54 | 1034.4 |
| 20260505065252 | 9 | 5 | 0.0 | 3.2 | 0.00 | 0.00 | 0.00 | 54 | 1034.5 |
| 20260505064749 | 9 | 49 | 4.8 | 8.0 | 0.00 | 0.00 | 0.00 | 53 | 1034.3 |
| 20260505064247 | 10 | 26 | 1.6 | 4.8 | 0.00 | 0.00 | 0.00 | 53 | 1034.1 |
| 20260505063744 | 10 | 300 | 4.8 | 4.8 | 0.00 | 0.00 | 0.00 | 54 | 1033.9 |
| 20260505063240 | 10 | 305 | 3.2 | 4.8 | 0.00 | 0.00 | 0.00 | 55 | 1033.8 |
| 20260505062737 | 10 | 25 | 1.6 | 4.8 | 0.00 | 0.00 | 0.00 | 54 | 1033.8 |
| 20260505062234 | 10 | 325 | 3.2 | 8.0 | 0.00 | 0.00 | 0.00 | 55 | 1033.8 |
| 20260505061731 | 10 | 280 | 1.6 | 4.8 | 0.00 | 0.00 | 0.00 | 53 | 1033.8 |
| 20260505061229 | 10 | 30 | 4.8 | 4.8 | 0.00 | 0.00 | 0.00 | 54 | 1033.8 |
| 20260505060726 | 10 | 267 | 6.4 | 9.7 | 0.00 | 0.00 | 0.00 | 53 | 1033.5 |
| 20260505060224 | 11 | 23 | 6.4 | 8.0 | 0.00 | 0.00 | 0.00 | 52 | 1033.4 |
| 20260505055718 | 10 | 40 | 3.2 | 4.8 | 0.00 | 0.00 | 0.00 | 54 | 1033.6 |
| 20260505055215 | 10 | 39 | 1.6 | 3.2 | 0.00 | 0.00 | 0.00 | 54 | 1033.5 |
| 20260505054713 | 11 | 18 | 1.6 | 8.0 | 0.00 | 0.00 | 0.00 | 53 | 1033.4 |
| 20260505054210 | 11 | 38 | 1.6 | 8.0 | 0.00 | 0.00 | 0.00 | 52 | 1033.5 |
| 20260505053708 | 11 | 349 | 0.0 | 8.0 | 0.00 | 0.00 | 0.00 | 52 | 1033.2 |
| 20260505053204 | 11 | 18 | 0.0 | 3.2 | 0.00 | 0.00 | 0.00 | 52 | 1033.2 |
| 20260505052702 | 11 | 348 | 1.6 | 8.0 | 0.00 | 0.00 | 0.00 | 51 | 1033.1 |
| 20260505052158 | 11 | 6 | 1.6 | 4.8 | 0.00 | 0.00 | 0.00 | 50 | 1033.1 |
| 20260505051656 | 11 | 341 | 1.6 | 9.7 | 0.00 | 0.00 | 0.00 | 50 | 1033.1 |
| 20260505051154 | 11 | 242 | 1.6 | 9.7 | 0.00 | 0.00 | 0.00 | 51 | 1033.3 |
| 20260505050651 | 11 | 358 | 1.6 | 4.8 | 0.00 | 0.00 | 0.00 | 52 | 1032.9 |
| 20260505050149 | 12 | 16 | 0.0 | 4.8 | 0.00 | 0.00 | 0.00 | 50 | 1032.9 |
| 20260505041619 | 12 | 339 | 3.2 | 9.7 | 0.00 | 0.00 | 0.00 | 47 | 1032.1 |
| 20260505041116 | 13 | 290 | 4.8 | 9.7 | 0.00 | 0.00 | 0.00 | 46 | 1032.3 |
| 20260505040613 | 13 | 356 | 1.6 | 8.0 | 0.00 | 0.00 | 0.00 | 46 | 1032.1 |
| 20260505040110 | 13 | 12 | 1.6 | 8.0 | 0.00 | 0.00 | 0.00 | 44 | 1032.0 |
| 20260505035607 | 13 | 342 | 3.2 | 3.2 | 0.00 | 0.00 | 0.00 | 44 | 1032.1 |
| 20260505035103 | 13 | 293 | 3.2 | 4.8 | 0.00 | 0.00 | 0.00 | 44 | 1032.1 |
| 20260505034600 | 13 | 318 | 1.6 | 3.2 | 0.00 | 0.00 | 0.00 | 44 | 1031.9 |
| 20260505034056 | 13 | 338 | 1.6 | 8.0 | 0.00 | 0.00 | 0.00 | 43 | 1032.1 |
| 20260505033553 | 13 | 317 | 1.6 | 3.2 | 0.00 | 0.00 | 0.00 | 44 | 1032.0 |
| 20260505033052 | 13 | 1 | 0.0 | 4.8 | 0.00 | 0.00 | 0.00 | 43 | 1031.9 |
| 20260505032549 | 13 | 4 | 1.6 | 4.8 | 0.00 | 0.00 | 0.00 | 43 | 1031.9 |
| 20260505032045 | 13 | 7 | 0.0 | 1.6 | 0.00 | 0.00 | 0.00 | 44 | 1031.9 |
| 20260505031543 | 13 | 355 | 1.6 | 3.2 | 0.00 | 0.00 | 0.00 | 41 | 1032.0 |
| 20260505031039 | 14 | 341 | 1.6 | 3.2 | 0.00 | 0.00 | 0.00 | 41 | 1031.8 |
| 20260505030536 | 14 | 342 | 1.6 | 4.8 | 0.00 | 0.00 | 0.00 | 40 | 1031.6 |
| 20260505030032 | 14 | 352 | 1.6 | 3.2 | 0.00 | 0.00 | 0.00 | 39 | 1031.4 |